SCP
-0 0 -0 0 0 0 0 0 0 0 0 0 0 0 0 0 0 0 0 0 0 0 0 0 0 0 0 0 0 0 0 0 0 0 0 0 0 0 0 0 -0 -0 -0
-0 0 -0 0 0 0 0 0 0 0 0 0 0 0 0 0 0 0 0 0 0 0 0 0 0 0 0 0 0 0 0 0 0 0 0 0 0 0 0 0 0 0 0
0 0 0 0 0 0 0 0 0 0 0 0 0 0 0 0 0 0 0 0 0 0 0 0 0 0 0 0 0 0 0 0 0 0 0 0 0 0 0 0 0 0 0
0 0 0 0 0 0 0 0 0 0 0 0 0 0 0 0 0 0 0 0 0 0 0 0 0 0 0 0 0 0 0 0 0 0 0 0 0 0 0 0 0 0 0
0 0 0 0 0 0 0 0 0 0 0 0 0 0 0 0 0 0 0 0 0 0 0 0 0 0 0 0 0 0 0 0 0 0 0 0 0 0 0 0 0 0 0
0 0 0 0 0 0 0 0 0 0 0 0 0 0 0 0 0 0 0 0 0 0 0 0 0 0 0 0 0 0 0 0 0 0 0 0 0 0 0 0 0 0 0
0 0 0 0 0 0 0 0 0 0 0 0 0 0 0 0 0 0 0 0 0 0 0 0 0 0 0 0 0 0 0 0 0 0 0 0 0 0 0 0 0 0 0
0 0 0 0 0 0 0 0 0 0 0 0 0 0 0 0 0 0 0 0 0 0 0 0 0 0 0 0 0 0 0 0 0 0 0 0 0 0 0 0 0 0 0
0 0 0 0 0 0 0 0 0 0 0 0 0 -0 -0 -0 -0 -0 -0 0 0 0 0 0 0 0 0 0 0 0 0 0 0 0 0 0 0 0 0 0 0 0 0
0 0 0 0 0 0 0 0 0 0 0 -0 -0 -0 -0 -0 -0 -0 -0 -0 -0 0 0 0 0 0 0 0 0 0 0 0 0 0 0 0 0 0 0 0 0 0 0
0 0 0 0 0 0 0 0 0 0 0 -0 -0 -0 0 0 0 -0 -0 -0 -0 0 0 0 0 0 0 0 0 0 0 0 0 0 0 0 0 0 0 0 0 0 0
0 0 0 0 0 0 0 0 0 0 0 0 0 0 0 0 0 0 0 0 0 0 0 0 0 0 0 0 0 0 0 0 0 0 0 0 0 0 0 0 0 0 0
0 0 0 0 0 0 0 0 0 0 0 0 0 0 0 0 0 0 0 0 0 0 0 0 0 0 0 0 0 0 0 0 0 0 0 0 0 0 0 0 0 0 0
0 0 0 0 0 0 0 0 0 0 0 0 0 0 0 0 0 0 0 0 0 0 0 0 0 0 0 0 0 0 0 0 0 0 0 0 0 0 0 0 0 0 -0
0 0 0 0 0 0 0 0 0 0 0 0 0 0 0 0 0 0 0 0 0 0 0 0 0 0 0 0 0 0 0 0 0 0 0 0 0 0 0 0 0 0 0
0 0 0 0 0 0 0 0 0 0 0 0 0 0 0 0 0 0 0 0 0 0 0 0 0 0 0 0 0 0 0 0 0 0 0 0 0 0 0 0 0 0 0
0 0 0 0 0 0 0 0 0 0 0 0 0 0 0 0 0 0 0 0 0 0 0 0 0 0 0 0 0 0 0 0 0 0 0 0 0 0 0 -0 -0 0 -0
0 0 0 0 0 0 0 0 0 0 0 0 0 0 0 0 0 0 0 0 0 0 0 0 0 0 0 0 0 0 0 0 0 0 0 0 0 0 0 0 0 0 0
0 0 0 0 0 0 0 0 0 0 0 0 0 0 0 0 0 0 0 0 0 0 0 0 0 0 0 0 0 0 0 0 0 0 0 0 0 0 0 0 0 0 0
0 0 0 0 0 0 0 0 0 0 0 0 0 0 0 0 0 0 0 0 0 0 0 0 0 0 0 0 0 0 0 0 0 0 0 0 0 0 0 0 0 0 0
0 0 0 0 0 0 0 0 0 0 0 0 0 0 0 0 0 0 0 0 0 0 0 0 0 0 0 0 0 0 0 0 0 0 0 0 0 0 0 0 0 0 0
0 0 0 0 0 0 0 0 0 0 0 0 0 0 0 0 0 0 0 0 0 0 0 0 0 0 0 0 0 0 0 0 0 0 0 0 0 0 0 0 0 0 0
0 0 0 0 0 0 0 0 0 0 0 0 0 0 0 0 0 0 0 0 0 0 0 0 0 0 0 0 0 0 0 0 0 0 0 0 0 0 0 0 0 0 0
0 0 0 0 0 0 0 0 0 0 0 0 0 0 0 0 0 0 0 0 0 0 0 0 0 0 0 0 0 0 0 0 0 0 0 0 0 0 0 0 0 0 0
0 0 0 0 0 0 0 0 0 0 0 0 0 0 0 0 0 0 0 0 0 0 0 0 0 0 0 0 0 0 0 0 0 0 0 0 0 0 0 0 0 0 0
0 0 0 0 0 0 0 0 0 0 0 0 0 0 0 0 0 0 0 0 0 0 0 0 0 0 0 0 0 0 0 0 0 0 0 0 0 0 0 0 0 0 0
Wind_Speed_500mb
14 10 11 12 10 7 5 6 4 5 7 11 14 12 11 10 7 7 7 6 7 7 9 9 9 2 9 17 20 18 19 19 18 19 17 16 16 16 16 18 15 18 20
20 14 10 17 12 8 5 6 6 7 11 13 14 12 10 8 9 10 10 9 12 12 10 9 9 10 4 5 17 23 23 22 23 22 21 21 22 21 19 20 20 19 15
19 14 12 16 14 7 7 7 9 12 14 16 16 12 9 8 10 10 12 11 13 12 11 9 8 8 7 5 6 16 24 26 26 26 30 25 23 20 18 18 18 17 13
15 12 14 19 19 12 7 7 8 11 14 14 13 9 6 8 10 12 12 12 12 13 13 12 8 6 7 6 6 4 15 25 29 30 29 28 23 21 19 18 14 9 7
12 8 13 18 18 16 13 11 12 13 13 10 4 4 7 10 12 14 15 15 15 14 13 12 11 10 7 6 5 5 7 15 24 29 30 28 26 20 22 17 12 8 7
8 6 12 18 20 19 17 16 12 12 10 7 8 11 14 17 20 19 20 20 20 19 18 16 14 13 13 10 6 5 6 7 16 20 25 27 24 24 26 21 18 14 12
13 9 11 15 17 19 21 20 16 13 11 10 13 15 15 17 18 19 18 19 20 19 19 18 16 16 15 13 11 7 3 6 10 8 13 19 21 22 20 25 24 18 13
13 7 8 11 13 16 20 22 23 20 18 16 14 13 13 11 12 13 14 15 17 14 13 15 15 15 13 14 13 7 1 11 13 12 13 20 20 20 17 17 17 14 13
15 6 4 8 9 12 17 20 22 23 20 15 13 11 6 7 6 6 7 9 12 14 12 14 11 10 7 9 12 9 8 11 14 18 21 23 19 16 15 14 11 9 8
17 10 6 5 5 6 13 13 16 21 21 15 14 12 6 5 5 4 3 6 7 13 13 11 11 10 5 3 4 8 6 8 11 18 20 22 20 17 14 7 2 7 16
25 19 12 10 8 3 6 7 12 16 19 20 20 19 14 10 11 8 7 10 10 14 16 14 14 10 8 3 4 2 6 6 10 20 23 19 16 12 7 1 7 15 21
29 24 16 17 11 6 1 3 7 10 14 18 19 22 17 16 14 11 11 8 14 15 13 12 11 11 9 6 9 8 5 7 15 23 22 18 13 8 3 5 11 15 16
23 29 20 16 16 10 7 5 3 7 12 13 16 20 18 14 12 13 11 13 16 10 11 11 9 7 9 6 2 10 9 9 16 18 15 11 7 3 3 7 11 13 18
35 30 25 19 15 10 15 9 7 7 8 8 10 16 22 14 7 6 9 18 12 10 11 14 13 7 6 5 4 0 15 18 20 19 16 10 4 5 4 7 8 15 19
44 35 29 23 18 14 14 16 12 6 7 5 7 12 18 15 6 7 10 16 15 12 13 21 12 5 1 2 4 8 21 19 17 14 8 7 5 6 4 7 11 18 21
50 41 33 25 20 16 14 16 14 10 6 2 3 5 10 16 11 11 14 16 15 13 19 26 7 3 3 5 6 8 10 13 12 11 8 5 11 8 8 12 18 18 17
56 46 41 30 25 16 13 17 18 12 8 5 4 6 5 9 11 10 15 16 16 17 20 23 8 5 4 5 8 6 8 13 13 9 1 2 6 5 10 16 18 16 15
62 55 45 36 28 17 11 19 17 15 11 9 7 8 9 7 12 11 14 17 15 18 17 16 3 2 2 3 13 8 13 13 10 4 3 3 8 10 11 11 12 13 15
54 55 50 41 30 18 14 20 18 18 16 14 13 11 10 10 11 11 12 16 12 16 11 12 2 4 3 4 8 12 12 12 7 8 3 6 6 7 10 14 18 21 23
36 49 49 41 30 21 18 20 21 21 20 20 17 16 15 15 13 13 13 12 15 11 10 8 8 4 7 7 4 15 17 14 16 11 2 8 12 16 19 21 25 27 29
22 41 49 43 33 25 23 21 27 25 22 20 20 18 18 15 14 14 13 10 11 6 5 6 11 10 9 8 7 9 17 20 22 17 9 18 20 17 21 28 35 39 40
19 33 46 41 35 30 25 21 25 26 28 24 23 20 18 20 16 12 9 6 7 6 5 3 5 8 11 12 9 3 2 10 21 21 24 27 14 21 29 32 36 38 43
19 27 45 46 40 36 28 23 28 32 31 28 22 18 16 13 14 10 6 5 7 8 6 2 2 3 6 8 11 8 4 2 22 19 22 15 27 29 29 27 26 28 33
16 19 36 44 42 39 32 28 32 35 34 29 25 20 17 16 17 14 12 9 9 9 6 5 4 5 7 8 10 10 12 17 17 23 21 38 27 26 23 22 23 27 29
13 18 24 37 41 39 37 34 37 38 33 30 25 23 21 18 19 20 18 15 13 10 9 9 9 8 9 13 15 18 20 20 23 30 40 33 29 21 23 29 31 34 35
11 12 24 32 41 43 41 38 41 40 37 35 30 29 24 21 21 20 24 22 15 9 9 8 7 9 12 17 19 22 26 28 29 25 32 33 37 36 35 35 33 34 31
Wind_Direction_500mb
161 131 90 39 358 318 270 246 248 279 294 309 314 318 325 327 342 348 356 21 45 55 55 54 44 91 217 224 213 216 207 201 196 196 194 191 178 179 171 162 164 154 159
166 138 75 32 11 340 326 302 313 310 310 316 316 328 341 352 358 360 7 34 38 35 35 38 26 27 37 218 214 220 221 209 207 204 208 207 198 192 178 179 177 179 190
158 120 61 43 17 352 346 335 330 319 318 322 325 330 342 352 360 10 24 32 24 21 15 15 6 2 355 334 225 211 223 227 218 213 212 210 206 203 197 183 185 192 194
141 97 56 43 34 39 18 352 341 334 328 321 317 321 346 9 24 39 35 23 16 11 9 7 9 356 332 324 312 249 213 222 225 226 223 219 215 208 195 188 181 181 182
139 83 62 49 46 47 37 15 358 343 333 333 2 73 64 61 64 53 41 33 32 26 23 22 22 17 12 332 314 274 245 221 227 228 228 225 218 209 193 194 194 202 219
153 121 76 59 54 53 41 23 7 353 356 27 60 63 72 87 71 65 59 58 51 43 39 36 39 48 42 25 336 285 251 232 216 222 228 223 216 209 214 216 218 217 226
178 141 88 73 67 56 41 38 34 38 45 62 81 80 85 91 75 64 61 57 53 47 40 36 43 45 35 15 351 324 249 199 184 186 225 216 200 202 216 220 214 216 229
190 157 112 93 78 66 54 53 51 52 56 63 68 70 79 104 91 72 59 56 51 35 25 26 32 30 35 16 359 334 200 152 147 139 157 168 175 195 204 199 203 226 258
195 194 148 133 103 72 55 54 52 60 57 54 43 42 79 102 87 74 44 43 45 33 18 15 16 348 354 8 22 27 113 141 145 150 142 150 154 167 164 182 199 225 284
206 210 221 188 152 94 58 54 50 54 57 50 35 28 40 11 347 317 287 358 21 14 16 16 353 354 302 300 36 53 97 150 153 158 148 145 151 150 150 158 210 305 310
212 219 225 216 198 143 65 43 38 36 53 52 41 33 11 339 340 358 339 341 353 358 359 357 5 13 10 233 187 152 102 130 178 170 159 147 146 145 154 182 335 330 325
223 224 224 218 212 204 244 344 31 20 39 51 37 23 356 332 337 350 345 344 353 344 341 351 353 1 17 284 239 215 164 119 146 152 148 149 157 152 119 348 347 347 336
243 226 228 227 221 218 251 273 336 9 23 41 31 13 359 340 336 351 358 0 330 334 347 342 343 356 28 40 305 243 209 160 154 154 162 159 153 106 31 10 7 10 357
240 234 230 224 215 227 224 247 260 327 0 33 35 22 11 355 351 349 344 3 21 4 344 335 333 317 7 43 2 292 153 154 157 161 167 172 225 302 318 334 341 350 345
243 236 232 231 222 220 236 245 252 284 341 3 24 15 21 31 35 4 351 8 7 358 338 337 320 311 348 149 56 57 150 148 151 158 175 200 249 280 275 310 325 325 324
248 239 233 234 218 224 243 249 252 258 287 307 316 337 8 34 36 17 11 13 9 7 349 354 21 57 20 168 162 99 130 160 156 161 172 232 274 277 296 301 315 317 326
250 243 232 226 212 219 242 241 245 245 274 273 282 286 326 6 6 358 3 1 12 6 356 354 27 59 9 217 191 176 148 153 169 172 195 301 357 282 289 295 289 303 315
250 242 228 222 214 211 243 238 249 247 266 268 266 261 271 302 339 328 346 347 347 355 354 1 60 59 20 283 224 204 181 159 159 170 209 261 278 282 288 307 309 310 322
253 234 221 218 212 212 234 237 249 244 253 254 246 236 257 283 307 303 327 340 337 345 357 10 100 51 41 324 246 212 192 196 196 168 204 275 296 270 265 286 293 297 294
254 230 218 214 209 215 236 239 252 233 241 244 235 231 248 269 286 304 320 335 339 340 10 31 21 22 34 21 77 191 199 192 189 187 291 312 295 273 275 281 284 283 285
260 226 215 216 214 228 236 265 248 238 243 241 235 240 254 269 276 308 320 316 333 353 5 35 36 49 38 71 125 128 201 212 222 237 266 328 306 280 276 282 282 282 284
309 241 222 220 223 239 243 267 242 239 236 240 242 249 259 264 272 300 319 297 317 339 356 7 37 54 45 42 44 91 167 211 229 251 266 292 286 282 286 283 283 283 282
318 258 233 228 231 243 249 254 238 231 233 237 242 250 261 252 258 262 286 305 332 327 335 305 317 47 53 25 19 28 352 279 299 285 298 288 308 308 304 299 297 293 288
330 259 238 230 239 246 255 262 251 238 238 239 242 239 231 232 223 232 244 279 300 305 294 267 283 315 335 347 345 336 323 309 308 303 299 303 302 310 313 306 307 310 302
325 269 251 241 242 247 258 265 254 244 244 234 235 242 232 230 230 238 249 266 292 298 289 281 285 308 320 325 314 310 306 301 293 286 296 296 306 308 314 311 307 300 292
314 295 256 255 253 252 257 263 250 244 246 247 241 242 239 245 236 247 245 248 255 271 273 264 277 302 305 311 311 309 306 300 293 278 278 290 303 310 312 313 314 310 306
Wind_Speed_850mb
14 10 11 12 10 7 5 6 4 5 7 11 14 12 11 10 7 7 7 6 7 7 9 9 9 2 9 17 20 18 19 19 18 19 17 16 16 16 16 18 15 18 20
20 14 10 17 12 8 5 6 6 7 11 13 14 12 10 8 9 10 10 9 12 12 10 9 9 10 4 5 17 23 23 22 23 22 21 21 22 21 19 20 20 19 15
19 14 12 16 14 7 7 7 9 12 14 16 16 12 9 8 10 10 12 11 13 12 11 9 8 8 7 5 6 16 24 26 26 26 30 25 23 20 18 18 18 17 13
15 12 14 19 19 12 7 7 8 11 14 14 13 9 6 8 10 12 12 12 12 13 13 12 8 6 7 6 6 4 15 25 29 30 29 28 23 21 19 18 14 9 7
12 8 13 18 18 16 13 11 12 13 13 10 4 4 7 10 12 14 15 15 15 14 13 12 11 10 7 6 5 5 7 15 24 29 30 28 26 20 22 17 12 8 7
8 6 12 18 20 19 17 16 12 12 10 7 8 11 14 17 20 19 20 20 20 19 18 16 14 13 13 10 6 5 6 7 16 20 25 27 24 24 26 21 18 14 12
13 9 11 15 17 19 21 20 16 13 11 10 13 15 15 17 18 19 18 19 20 19 19 18 16 16 15 13 11 7 3 6 10 8 13 19 21 22 20 25 24 18 13
13 7 8 11 13 16 20 22 23 20 18 16 14 13 13 11 12 13 14 15 17 14 13 15 15 15 13 14 13 7 1 11 13 12 13 20 20 20 17 17 17 14 13
15 6 4 8 9 12 17 20 22 23 20 15 13 11 6 7 6 6 7 9 12 14 12 14 11 10 7 9 12 9 8 11 14 18 21 23 19 16 15 14 11 9 8
17 10 6 5 5 6 13 13 16 21 21 15 14 12 6 5 5 4 3 6 7 13 13 11 11 10 5 3 4 8 6 8 11 18 20 22 20 17 14 7 2 7 16
25 19 12 10 8 3 6 7 12 16 19 20 20 19 14 10 11 8 7 10 10 14 16 14 14 10 8 3 4 2 6 6 10 20 23 19 16 12 7 1 7 15 21
29 24 16 17 11 6 1 3 7 10 14 18 19 22 17 16 14 11 11 8 14 15 13 12 11 11 9 6 9 8 5 7 15 23 22 18 13 8 3 5 11 15 16
23 29 20 16 16 10 7 5 3 7 12 13 16 20 18 14 12 13 11 13 16 10 11 11 9 7 9 6 2 10 9 9 16 18 15 11 7 3 3 7 11 13 18
35 30 25 19 15 10 15 9 7 7 8 8 10 16 22 14 7 6 9 18 12 10 11 14 13 7 6 5 4 0 15 18 20 19 16 10 4 5 4 7 8 15 19
44 35 29 23 18 14 14 16 12 6 7 5 7 12 18 15 6 7 10 16 15 12 13 21 12 5 1 2 4 8 21 19 17 14 8 7 5 6 4 7 11 18 21
50 41 33 25 20 16 14 16 14 10 6 2 3 5 10 16 11 11 14 16 15 13 19 26 7 3 3 5 6 8 10 13 12 11 8 5 11 8 8 12 18 18 17
56 46 41 30 25 16 13 17 18 12 8 5 4 6 5 9 11 10 15 16 16 17 20 23 8 5 4 5 8 6 8 13 13 9 1 2 6 5 10 16 18 16 15
62 55 45 36 28 17 11 19 17 15 11 9 7 8 9 7 12 11 14 17 15 18 17 16 3 2 2 3 13 8 13 13 10 4 3 3 8 10 11 11 12 13 15
54 55 50 41 30 18 14 20 18 18 16 14 13 11 10 10 11 11 12 16 12 16 11 12 2 4 3 4 8 12 12 12 7 8 3 6 6 7 10 14 18 21 23
36 49 49 41 30 21 18 20 21 21 20 20 17 16 15 15 13 13 13 12 15 11 10 8 8 4 7 7 4 15 17 14 16 11 2 8 12 16 19 21 25 27 29
22 41 49 43 33 25 23 21 27 25 22 20 20 18 18 15 14 14 13 10 11 6 5 6 11 10 9 8 7 9 17 20 22 17 9 18 20 17 21 28 35 39 40
19 33 46 41 35 30 25 21 25 26 28 24 23 20 18 20 16 12 9 6 7 6 5 3 5 8 11 12 9 3 2 10 21 21 24 27 14 21 29 32 36 38 43
19 27 45 46 40 36 28 23 28 32 31 28 22 18 16 13 14 10 6 5 7 8 6 2 2 3 6 8 11 8 4 2 22 19 22 15 27 29 29 27 26 28 33
16 19 36 44 42 39 32 28 32 35 34 29 25 20 17 16 17 14 12 9 9 9 6 5 4 5 7 8 10 10 12 17 17 23 21 38 27 26 23 22 23 27 29
13 18 24 37 41 39 37 34 37 38 33 30 25 23 21 18 19 20 18 15 13 10 9 9 9 8 9 13 15 18 20 20 23 30 40 33 29 21 23 29 31 34 35
11 12 24 32 41 43 41 38 41 40 37 35 30 29 24 21 21 20 24 22 15 9 9 8 7 9 12 17 19 22 26 28 29 25 32 33 37 36 35 35 33 34 31
Wind_Direction_850mb
161 131 90 39 358 318 270 246 248 279 294 309 314 318 325 327 342 348 356 21 45 55 55 54 44 91 217 224 213 216 207 201 196 196 194 191 178 179 171 162 164 154 159
166 138 75 32 11 340 326 302 313 310 310 316 316 328 341 352 358 360 7 34 38 35 35 38 26 27 37 218 214 220 221 209 207 204 208 207 198 192 178 179 177 179 190
158 120 61 43 17 352 346 335 330 319 318 322 325 330 342 352 360 10 24 32 24 21 15 15 6 2 355 334 225 211 223 227 218 213 212 210 206 203 197 183 185 192 194
141 97 56 43 34 39 18 352 341 334 328 321 317 321 346 9 24 39 35 23 16 11 9 7 9 356 332 324 312 249 213 222 225 226 223 219 215 208 195 188 181 181 182
139 83 62 49 46 47 37 15 358 343 333 333 2 73 64 61 64 53 41 33 32 26 23 22 22 17 12 332 314 274 245 221 227 228 228 225 218 209 193 194 194 202 219
153 121 76 59 54 53 41 23 7 353 356 27 60 63 72 87 71 65 59 58 51 43 39 36 39 48 42 25 336 285 251 232 216 222 228 223 216 209 214 216 218 217 226
178 141 88 73 67 56 41 38 34 38 45 62 81 80 85 91 75 64 61 57 53 47 40 36 43 45 35 15 351 324 249 199 184 186 225 216 200 202 216 220 214 216 229
190 157 112 93 78 66 54 53 51 52 56 63 68 70 79 104 91 72 59 56 51 35 25 26 32 30 35 16 359 334 200 152 147 139 157 168 175 195 204 199 203 226 258
195 194 148 133 103 72 55 54 52 60 57 54 43 42 79 102 87 74 44 43 45 33 18 15 16 348 354 8 22 27 113 141 145 150 142 150 154 167 164 182 199 225 284
206 210 221 188 152 94 58 54 50 54 57 50 35 28 40 11 347 317 287 358 21 14 16 16 353 354 302 300 36 53 97 150 153 158 148 145 151 150 150 158 210 305 310
212 219 225 216 198 143 65 43 38 36 53 52 41 33 11 339 340 358 339 341 353 358 359 357 5 13 10 233 187 152 102 130 178 170 159 147 146 145 154 182 335 330 325
223 224 224 218 212 204 244 344 31 20 39 51 37 23 356 332 337 350 345 344 353 344 341 351 353 1 17 284 239 215 164 119 146 152 148 149 157 152 119 348 347 347 336
243 226 228 227 221 218 251 273 336 9 23 41 31 13 359 340 336 351 358 0 330 334 347 342 343 356 28 40 305 243 209 160 154 154 162 159 153 106 31 10 7 10 357
240 234 230 224 215 227 224 247 260 327 0 33 35 22 11 355 351 349 344 3 21 4 344 335 333 317 7 43 2 292 153 154 157 161 167 172 225 302 318 334 341 350 345
243 236 232 231 222 220 236 245 252 284 341 3 24 15 21 31 35 4 351 8 7 358 338 337 320 311 348 149 56 57 150 148 151 158 175 200 249 280 275 310 325 325 324
248 239 233 234 218 224 243 249 252 258 287 307 316 337 8 34 36 17 11 13 9 7 349 354 21 57 20 168 162 99 130 160 156 161 172 232 274 277 296 301 315 317 326
250 243 232 226 212 219 242 241 245 245 274 273 282 286 326 6 6 358 3 1 12 6 356 354 27 59 9 217 191 176 148 153 169 172 195 301 357 282 289 295 289 303 315
250 242 228 222 214 211 243 238 249 247 266 268 266 261 271 302 339 328 346 347 347 355 354 1 60 59 20 283 224 204 181 159 159 170 209 261 278 282 288 307 309 310 322
253 234 221 218 212 212 234 237 249 244 253 254 246 236 257 283 307 303 327 340 337 345 357 10 100 51 41 324 246 212 192 196 196 168 204 275 296 270 265 286 293 297 294
254 230 218 214 209 215 236 239 252 233 241 244 235 231 248 269 286 304 320 335 339 340 10 31 21 22 34 21 77 191 199 192 189 187 291 312 295 273 275 281 284 283 285
260 226 215 216 214 228 236 265 248 238 243 241 235 240 254 269 276 308 320 316 333 353 5 35 36 49 38 71 125 128 201 212 222 237 266 328 306 280 276 282 282 282 284
309 241 222 220 223 239 243 267 242 239 236 240 242 249 259 264 272 300 319 297 317 339 356 7 37 54 45 42 44 91 167 211 229 251 266 292 286 282 286 283 283 283 282
318 258 233 228 231 243 249 254 238 231 233 237 242 250 261 252 258 262 286 305 332 327 335 305 317 47 53 25 19 28 352 279 299 285 298 288 308 308 304 299 297 293 288
330 259 238 230 239 246 255 262 251 238 238 239 242 239 231 232 223 232 244 279 300 305 294 267 283 315 335 347 345 336 323 309 308 303 299 303 302 310 313 306 307 310 302
325 269 251 241 242 247 258 265 254 244 244 234 235 242 232 230 230 238 249 266 292 298 289 281 285 308 320 325 314 310 306 301 293 286 296 296 306 308 314 311 307 300 292
314 295 256 255 253 252 257 263 250 244 246 247 241 242 239 245 236 247 245 248 255 271 273 264 277 302 305 311 311 309 306 300 293 278 278 290 303 310 312 313 314 310 306